#timestamp,LO_Frequency,Hit,StdDev 
1589580015.9,286046999.8,N
1589580035.7,286047000.7,N
1589580055.6,286046998.8,N
1589580075.4,286047000.7,N
1589580095.2,286047000.3,N
1589580115.1,286047000.2,N
1589580116.0,286047000.2,N
1589580135.8,286047000.3,N
1589580155.7,286047000.9,N
1589580175.5,286046998.7,N
1589580195.3,286046999.1,N
1589580215.2,286046998.8,N
1589580235.0,286046999.2,N
1589580235.9,286046999.2,N
1589580255.7,286047001.0,N
1589580275.6,286046998.5,N
1589580295.4,286046999.9,N
1589580315.3,286047000.4,N
1589580335.1,286046998.6,N
1589580355.8,286046999.0,N
1589580375.7,286046998.5,N
1589580395.5,286047001.2,N
1589580415.4,286046998.1,N
1589580435.2,286047000.5,N
1589580455.0,286047000.3,N
1589580455.9,286047000.3,N
1589580475.8,286046998.8,N
1589580495.6,286046996.5,Y
1589580515.5,286046997.2,P
1589580535.3,286046996.7,N
1589580555.1,286046996.7,N
1589580575.9,286046998.3,N
1589580595.7,286046996.5,Y
1589580615.5,286047000.9,P
1589580635.4,286047000.9,N
1589580655.2,286046998.8,N
1589580675.1,286046998.8,N
1589580676.0,286046998.8,N
1589580695.8,286046996.8,N
1589580715.7,286046997.4,N
1589580735.5,286046997.7,N
1589580755.3,286046995.5,Y
1589580775.2,286046999.6,P
1589580795.0,286046998.2,P
1589580795.9,286046998.2,P
1589580815.7,286047001.2,N
1589580835.6,286047000.1,N
1589580855.4,286047003.2,N
1589580875.3,286047001.9,N
1589580895.1,286046999.9,N
1589580915.8,286047003.8,N
1589580935.7,286047002.1,N
1589580955.5,286047001.7,N
1589580975.4,286047004.4,N
1589580995.2,286047002.7,N
1589581015.0,286047000.4,N
1589581015.9,286047000.4,N
1589581035.8,286046999.8,N
1589581055.6,286047004.0,N
1589581075.4,286046999.9,N
1589581095.3,286046998.6,N
1589581115.1,286047001.5,N
1589581135.9,286047004.1,N
1589581155.7,286047004.7,N
1589581175.5,286047003.7,N
1589581195.4,286047004.4,N
1589581215.2,286047003.6,N
1589581235.1,286047003.8,N
1589581236.0,286047003.8,N
1589581255.8,286047003.2,N
1589581275.6,286047002.4,N
1589581295.5,286047003.8,N
1589581315.3,286047003.7,N
1589581335.1,286047001.8,N
1589581355.9,286047003.9,N
1589581375.7,286047001.3,N
1589581395.6,286047006.0,Y
1589581415.4,286047003.9,P
1589581435.2,286047000.1,N
1589581455.1,286047002.8,N
1589581456.0,286047002.8,N
1589581475.8,286047002.8,N
1589581495.7,286046998.2,N
1589581515.5,286047000.8,N
1589581535.3,286046998.8,N
1589581555.2,286046999.7,N
1589581575.0,286047004.1,N
1589581575.9,286047004.1,N
1589581595.8,286047002.9,N
1589581615.6,286047001.4,N
1589581635.4,286047000.2,N
1589581655.3,286047000.0,N
1589581675.1,286047001.0,N
1589581695.9,286047000.1,N
1589581715.7,286047002.6,N
1589581735.5,286047003.8,N
1589581755.4,286047001.5,N
1589581775.2,286047004.3,N
1589581795.0,286047000.0,N
1589581795.9,286047000.0,N
1589581815.8,286047000.9,N
1589581835.6,286047002.8,N
1589581855.5,286047002.3,N
1589581875.3,286047000.3,N
1589581895.2,286047000.4,N
1589581915.9,286046999.7,N
1589581935.7,286047000.3,N
1589581955.6,286047001.2,N
1589581975.4,286047000.4,N
1589581995.2,286047001.1,N
1589582015.1,286046999.7,N
1589582016.0,286046999.7,N
1589582035.8,286047002.5,N
1589582055.7,286047004.2,N
1589582075.5,286047002.5,N
1589582095.3,286047000.6,N
1589582115.2,286047001.5,N
1589582135.0,286047003.1,N
1589582135.9,286047003.1,N
1589582155.8,286047004.4,Y
1589582175.6,286047000.4,P
1589582195.4,286047002.2,P
1589582215.3,286047002.5,P
1589582235.1,286047002.6,Y
1589582255.9,286047001.4,P
1589582275.7,286047002.4,P
1589582295.5,286046998.1,P
1589582315.4,286046999.9,N
1589582335.2,286046998.6,N
1589582355.1,286047000.6,N
1589582356.0,286047000.6,N
1589582375.8,286046997.0,N
1589582395.6,286046997.1,N
1589582415.5,286046999.8,N
1589582435.3,286047002.8,N
1589582455.1,286047000.1,N
1589582475.9,286047002.7,N
1589582495.7,286046998.5,N
1589582515.6,286047001.1,N
1589582535.4,286047000.1,N
1589582555.2,286047001.0,N
1589582575.1,286047002.3,N
1589582576.0,286047002.3,N
1589582595.8,286047000.8,N
1589582615.6,286046998.3,N
1589582635.5,286046999.3,N
1589582655.3,286047002.6,N
1589582675.2,286047000.4,N
1589582695.9,286047000.6,N
1589582715.7,286046998.6,N
1589582735.6,286046995.7,N
1589582755.4,286046999.2,N
1589582775.3,286047002.7,N
1589582795.1,286046999.3,N
1589582796.0,286046999.3,N
1589582815.8,286046998.1,N
1589582835.7,286047002.6,N
1589582855.5,286047002.4,N
1589582875.4,286047002.8,N
1589582895.2,286046998.6,N
1589582915.0,286047001.5,N
1589582915.9,286047001.5,N
1589582935.8,286047002.1,N
1589582955.6,286047002.7,N
1589582975.5,286047004.0,N
1589582995.3,286047004.3,N
1589583015.1,286047003.9,N
1589583035.9,286047004.1,N
1589583055.7,286047003.1,N
1589583075.6,286047003.3,N
1589583095.4,286047004.2,N
1589583115.2,286047004.4,N
1589583135.1,286047005.7,N
1589583136.0,286047005.7,N
1589583155.8,286047002.9,N
1589583175.7,286047006.7,N
1589583195.5,286047005.3,N
1589583215.3,286047004.3,N
1589583235.2,286047003.6,N
1589583255.0,286047002.1,N
1589583255.9,286047002.1,N
1589583275.8,286047002.6,N
1589583295.6,286047003.4,N
1589583315.4,286047006.0,N
1589583335.3,286047004.3,N
1589583355.1,286047003.3,N
1589583375.9,286047003.6,N
1589583395.7,286047003.9,N
1589583415.5,286046996.1,N
1589583435.4,286046999.8,N
1589583455.2,286047001.6,N
1589583475.1,286047001.9,N
1589583476.0,286047001.9,N
1589583495.8,286047001.9,N
1589583515.6,286047002.7,N
1589583535.5,286047004.4,N
1589583555.3,286047002.3,N
1589583575.2,286047004.4,N
1589583595.9,286047001.7,N
